Regional Weather Roundup
Issued by NWS

Home | Current Version | Previous Version | Text Only | Print | Product List | Glossary On
Versions: 1 2 3 4 5 6 7 8 9 10 11 12 13 14 15 16 17 18 19 20 21 22 23 24 25 26 27 28 29 30 31 32 33 34 35 36 37 38 39 40 41 42 43 44 45 46 47 48 49 50
000
ASUS43 KDMX 072208
RWRIA

WEATHER ROUNDUP FOR IOWA
NATIONAL WEATHER SERVICE DES MOINES IA
400 PM CST SUN FEB 07 2016

NOTE: "FAIR" INDICATES FEW OR NO CLOUDS BELOW 12,000 FEET WITH NO
SIGNIFICANT WEATHER AND/OR OBSTRUCTIONS TO VISIBILITY.

* - THESE STATIONS ARE NOT NWS STATIONS...THUS NOT UNDER NWS
QUALITY CONTROL.  THEY ALSO DO NOT REPORT WEATHER SUCH
AS PRECIPITATION OR FOG.

IAZ001>003-012>014-020>022-031>034-043>046-072300-
   NORTHWEST IOWA

CITY           SKY/WX    TMP DP  RH WIND       PRES   REMARKS
CARROLL *      LGT SNOW  34  32  93 W22G31    29.85S WCI  22
CHEROKEE *     CLOUDY    34  32  93 W18       29.84S WCI  23
DENISON *      LGT SNOW  34  32  93 W18       29.86S WCI  23
LE MARS *      CLOUDY    36  34  93 NW20G30   29.88R WCI  25
ORANGE CITY *  CLOUDY    34  30  86 NW28      29.83S WCI  20
SHELDON *      CLOUDY    34  28  80 NW26G33   29.80R WCI  21
SIOUX CITY     LGT SNOW  35  30  82 NW23G32   29.89R WCI  23
SPENCER        CLOUDY    35  28  75 W25       29.79R WCI  23
STORM LAKE *   LGT SNOW  32  32 100 W23       29.82S WCI  19
$$

IAZ055>058-069>071-079>083-090>094-072300-
   SOUTHWEST IOWA

CITY           SKY/WX    TMP DP  RH WIND       PRES   REMARKS
ATLANTIC *     MOSUNNY   37  27  65 W25G32    29.91R WCI  26
AUDUBON *      MIX PCPN  37  28  70 NW15G28   29.89R WCI  28
CLARINDA *     CLOUDY    43  23  45 W24G35    29.96S
COUNCIL BLFS * FLURRIES  36  28  75 NW24G38   29.94R WCI  24
CRESTON *      CLOUDY    39  27  60 W22G32    29.90S WCI  29
HARLAN  *      LGT RAIN  36  30  80 NW24G33   29.94R WCI  24
LAMONI         CLOUDY    42  25  50 W20       29.90F
RED OAK *      MOSUNNY   41  27  56 W15G24    29.93S
SHENANDOAH *   CLOUDY    43  27  52 W18G30    29.96S
$$

IAZ047>049-059>061-072>074-084-072300-
   CENTRAL IOWA

CITY           SKY/WX    TMP DP  RH WIND       PRES   REMARKS
AMES           SUNNY     37  28  70 W24G33    29.82S WCI  26
ANKENY *       MOSUNNY   41  27  56 W18G29    29.84F
BOONE *        PTSUNNY   37  28  70 W22G30    29.81S WCI  27
CHARITON *     MOSUNNY   45  25  45 W17G25    29.88S
DES MOINES     PTSUNNY   40  25  55 W21       29.85S WCI  30
GRINNELL*      MOSUNNY   39  28  65 W15       29.83S WCI  31
KNOXVILLE *    PTSUNNY   41  27  56 W17       29.85S
MARSHALLTOWN   SUNNY     38  28  67 W15G24    29.80S WCI  29
NEWTON *       PTSUNNY   39  28  65 W22G28    29.83S WCI  29
PELLA *        MOSUNNY   43  25  49 W16G22    29.86F
$$

IAZ004>006-015-016-023>025-035-036-072300-
   NORTH CENTRAL IOWA

CITY           SKY/WX    TMP DP  RH WIND       PRES   REMARKS
ALGONA *       CLOUDY    36  30  80 W20       29.77S WCI  25
CLARION *      SUNNY     34  30  86 W20G30    29.77F WCI  22
ESTHERVILLE    LGT SNOW  34  29  82 W22       29.75S WCI  22
FORT DODGE *   PTSUNNY   36  28  75 W14G20    29.81S WCI  27
MASON CITY     CLOUDY    36  29  75 W21       29.75R WCI  25
FOREST CITY *  MOSUNNY   34  30  86 W16G28    29.74R WCI  23
WEBSTER CITY * PTSUNNY   36  30  80 W22       29.78S WCI  24
IOWA FALLS *     N/A     37  30  75 W20       29.79S WCI  27
$$

IAZ007>011-017>019-026>030-037>042-050>054-066-072300-
   NORTHEAST IOWA

CITY           SKY/WX    TMP DP  RH WIND       PRES   REMARKS
CEDAR RAPIDS   SUNNY     40  32  73 W21       29.79S WCI  30
CHARLES CITY * SUNNY     37  32  81 W20       29.73S WCI  27
CLINTON *      SUNNY     41  30  65 W21       29.78R
DECORAH *      MOSUNNY   37  28  70 W8G18     29.69S WCI  31
DUBUQUE        SUNNY     37  29  72 W15       29.74S WCI  28
MONTICELLO *   SUNNY     39  30  70 W15G22    29.77S WCI  31
OELWEIN *      SUNNY     37  30  75 W20       29.75S WCI  27
WATERLOO       MOSUNNY   38  28  67 W16       29.76S WCI  29
$$

IAZ064-065-067-068-078-072300-
   EAST CENTRAL IOWA

CITY           SKY/WX    TMP DP  RH WIND       PRES   REMARKS
DAVENPORT      SUNNY     43  29  57 W15       29.80R
IOWA CITY      MOSUNNY   42  30  62 W18G30    29.84R
MT. PLEASANT * SUNNY     48  28  46 W16G28    29.85R
MUSCATINE *    MOSUNNY   45  28  53 W20       29.83S
QUAD CITIES    SUNNY     45  27  49 W15       29.80R
$$

IAZ062-063-075>077-085>089-095>099-072300-
   SOUTHEAST IOWA

CITY           SKY/WX    TMP DP  RH WIND       PRES   REMARKS
BURLINGTON     SUNNY     47  27  45 NW15G23   29.83S
FAIRFIELD *    MOSUNNY   43  28  56 W21       29.85R
FORT MADISON * SUNNY     46  28  49 NW15G25   29.85R
KEOKUK *       SUNNY     48  25  40 W16G25    29.85R
OSKALOOSA *      N/A     41  30  65 W14G24    29.86S
CENTERVILLE *    N/A    N/A N/A N/A MISG        N/A
OTTUMWA        PTSUNNY   43  28  55 W15       29.86R
WASHINGTON *   MOSUNNY   43  30  61 W21G29    29.85S
$$

ABBREVIATIONS USED IN REMARKS
   TC - TEMPERATURES IN CELSIUS
  WCI - WIND CHILL INDEX
   HX - HEAT INDEX
  VSB - VISIBILITY
$$




USA.gov is the U.S. government's official web portal to all federal, state and local government web resources and services.